Mount Pleasant, SC

11:10 PM EST on December 08, 2016 (GMT -0500)
Mount Pleasant

Weather History for KLRO - February, 2013

Change the Weather History Date:

Wednesday, February 13, 2013

  Actual Average (KCHS) Record (KCHS)
Temperature  
Mean Temperature 60 °F -  
Max Temperature 73 °F 59 °F 78 °F (1976)
Min Temperature 48 °F 37 °F 22 °F (1955)
Degree Days  
Heating Degree Days 4    
Growing Degree Days 10 (Base 50)    
Moisture  
Dew Point 54 °F    
Average Humidity 83    
Maximum Humidity 100    
Minimum Humidity 43    
Precipitation  
Precipitation 0.40 in - - ()
Sea Level Pressure  
Sea Level Pressure 29.79 in    
Wind  
Wind Speed 6 mph (West)    
Max Wind Speed 25 mph    
Max Gust Speed 34 mph    
Visibility 7 miles    
Events Fog , Rain , Thunderstorm    
Averages and records for this station are not official NWS values.
T = Trace of Precipitation, MM = Missing Value Source: NWS Daily Summary

Daily Weather History Graph

Daily Weather History Graph

Search for Another Location

Airport or City:

Trip Planner

Search our weather history database for the weather conditions in past years. The results will help you decide how hot, cold, wet, or windy it might be!

Date:

Astronomy

Feb. 13, 2013 Rise Set
Actual Time 7:04 AM EST 6:02 PM EST
Civil Twilight 6:38 AM EST 6:28 PM EST
Nautical Twilight 6:09 AM EST 6:57 PM EST
Astronomical Twilight 5:41 AM EST 7:26 PM EST
Moon 8:47 AM EST (2/13) 9:47 PM EST (2/13)
Length of Visible Light 11h 49m
Length of Day
10h 58m
Waxing Crescent, 13% of the Moon is Illuminated
Feb 13
Waxing Crescent
Feb 17
First Quarter
Feb 25
Full
Mar 4
Last Quarter
Mar 11
New

Hourly Weather History & Observations

Time (EST) Temp. Dew Point Humidity Pressure Visibility Wind Dir Wind Speed Gust Speed Precip Events Conditions
12:15 AM 51.8 °F 51.8 °F 100% 29.90 in 4.0 mi North 4.6 mph - 0.02 in   Light Drizzle
12:35 AM 51.8 °F 51.8 °F 100% 29.89 in 8.0 mi NE 3.5 mph - 0.03 in   Light Drizzle
12:55 AM 51.8 °F 51.8 °F 100% 29.90 in 5.0 mi ENE 3.5 mph - 0.03 in Rain Light Rain
1:15 AM 51.8 °F 51.8 °F 100% 29.88 in 2.0 mi NNE 5.8 mph - 0.06 in Rain Heavy Rain
1:35 AM 51.8 °F 50.0 °F 94% 29.86 in 2.0 mi NE 4.6 mph - 0.24 in Rain Heavy Rain
2:15 AM 50.0 °F 50.0 °F 100% 29.85 in 4.0 mi ENE 4.6 mph - 0.01 in   Light Drizzle
2:35 AM 48.2 °F 48.2 °F 100% 29.85 in 6.0 mi NE 5.8 mph - 0.02 in   Light Drizzle
2:55 AM 48.2 °F 48.2 °F 100% 29.83 in 10.0 mi NE 5.8 mph - 0.02 in   Overcast
3:15 AM 48.2 °F 48.2 °F 100% 29.84 in 9.0 mi WNW 4.6 mph - N/A Rain Light Rain
3:35 AM 48.2 °F 48.2 °F 100% 29.82 in 3.0 mi Calm Calm - 0.06 in Thunderstorm Overcast
3:55 AM 48.2 °F 48.2 °F 100% 29.78 in 10.0 mi NNW 3.5 mph - 0.06 in Thunderstorm Overcast
4:15 AM 50.0 °F 50.0 °F 100% 29.78 in 8.0 mi NE 3.5 mph - N/A   Overcast
4:35 AM 51.8 °F 51.8 °F 100% 29.78 in 6.0 mi East 4.6 mph - N/A   Overcast
4:55 AM 51.8 °F 51.8 °F 100% 29.77 in 5.0 mi East 6.9 mph - N/A Thunderstorm Overcast
5:15 AM 51.8 °F 51.8 °F 100% 29.78 in 7.0 mi SE 4.6 mph - N/A Thunderstorm Overcast
5:35 AM 53.6 °F 51.8 °F 94% 29.76 in 7.0 mi East 3.5 mph - N/A   Overcast
5:55 AM 53.6 °F 53.6 °F 100% 29.76 in 5.0 mi ESE 3.5 mph - N/A Thunderstorm Overcast
6:15 AM 53.6 °F 53.6 °F 100% 29.77 in 6.0 mi NNW 4.6 mph - N/A   Overcast
6:35 AM 53.6 °F 53.6 °F 100% 29.78 in 7.0 mi North 3.5 mph - N/A   Overcast
6:55 AM 53.6 °F 51.8 °F 94% 29.78 in 5.0 mi Calm Calm - N/A   Overcast
7:15 AM 51.8 °F 51.8 °F 100% 29.78 in 4.0 mi Calm Calm - N/A Thunderstorm Overcast
7:35 AM 51.8 °F 51.8 °F 100% 29.78 in 3.0 mi Calm Calm - N/A   Overcast
7:55 AM 51.8 °F 51.8 °F 100% 29.78 in 2.0 mi Calm Calm - N/A   Overcast
8:15 AM 51.8 °F 51.8 °F 100% 29.78 in 1.8 mi Calm Calm - N/A   Overcast
8:35 AM 53.6 °F 53.6 °F 100% 29.79 in 0.5 mi Calm Calm - N/A Fog Fog
8:55 AM 53.6 °F 53.6 °F 100% 29.80 in 0.5 mi Calm Calm - N/A Fog Fog
9:15 AM 55.4 °F 55.4 °F 100% 29.81 in 0.8 mi Calm Calm - N/A   Overcast
9:35 AM 55.4 °F 55.4 °F 100% 29.79 in 0.2 mi South 3.5 mph - N/A Fog Fog
9:55 AM 57.2 °F 57.2 °F 100% 29.81 in 0.2 mi WSW 3.5 mph - N/A Fog Fog
10:15 AM 59.0 °F 57.2 °F 94% 29.80 in 0.2 mi Calm Calm - N/A Fog Fog
10:35 AM 60.8 °F 60.8 °F 100% 29.80 in 0.2 mi West 3.5 mph - N/A Fog Fog
11:15 AM 62.6 °F 60.8 °F 94% 29.80 in 3.0 mi West 6.9 mph - N/A   Mostly Cloudy
11:35 AM 64.4 °F 62.6 °F 94% 29.78 in 4.0 mi WSW 5.8 mph - N/A   Mostly Cloudy
11:55 AM 68.0 °F 64.4 °F 88% 29.77 in 8.0 mi SW 6.9 mph - N/A   Scattered Clouds
12:15 PM 69.8 °F 64.4 °F 83% 29.76 in 10.0 mi WSW 10.4 mph 16.1 mph N/A   Partly Cloudy
12:35 PM 69.8 °F 64.4 °F 83% 29.76 in 10.0 mi WSW 15.0 mph 21.9 mph N/A   Scattered Clouds
12:55 PM 71.6 °F 64.4 °F 78% 29.73 in 10.0 mi SW 11.5 mph 19.6 mph N/A   Partly Cloudy
1:15 PM 71.6 °F 64.4 °F 78% 29.73 in 9.0 mi South 10.4 mph 16.1 mph N/A   Scattered Clouds
1:35 PM 73.4 °F 64.4 °F 73% 29.72 in 8.0 mi SSW 11.5 mph 20.7 mph N/A   Partly Cloudy
1:55 PM 71.6 °F 64.4 °F 78% 29.71 in 8.0 mi SSW 11.5 mph 18.4 mph N/A   Clear
2:15 PM 71.6 °F 64.4 °F 78% 29.70 in 9.0 mi SSW 12.7 mph 18.4 mph N/A   Partly Cloudy
2:35 PM 71.6 °F 64.4 °F 78% 29.70 in 9.0 mi SSW 12.7 mph 18.4 mph N/A   Clear
2:55 PM 71.6 °F 64.4 °F 78% 29.71 in 8.0 mi SSW 10.4 mph - N/A   Clear
3:15 PM 71.6 °F 64.4 °F 78% 29.72 in 9.0 mi SW 8.1 mph - N/A   Clear
3:35 PM 71.6 °F 64.4 °F 78% 29.71 in 8.0 mi SW 9.2 mph - N/A   Clear
3:55 PM 73.4 °F 64.4 °F 73% 29.71 in 9.0 mi WSW 5.8 mph - N/A   Clear
4:15 PM 73.4 °F 55.4 °F 53% 29.72 in 10.0 mi West 12.7 mph 23.0 mph N/A   Clear
4:35 PM 71.6 °F 51.8 °F 50% 29.74 in 10.0 mi West 12.7 mph 18.4 mph N/A   Partly Cloudy
4:55 PM 71.6 °F 48.2 °F 43% 29.76 in 10.0 mi West 13.8 mph 28.8 mph N/A   Partly Cloudy
5:15 PM 69.8 °F 46.4 °F 43% 29.77 in 10.0 mi West 15.0 mph 28.8 mph N/A   Scattered Clouds
5:35 PM 69.8 °F 46.4 °F 43% 29.77 in 10.0 mi West 15.0 mph 21.9 mph N/A   Scattered Clouds
5:55 PM 68.0 °F 46.4 °F 46% 29.79 in 10.0 mi West 24.2 mph 32.2 mph N/A Rain Light Rain
6:15 PM 66.2 °F 46.4 °F 49% 29.79 in 10.0 mi West 10.4 mph 24.2 mph N/A   Mostly Cloudy
6:35 PM 62.6 °F 50.0 °F 63% 29.79 in 10.0 mi WSW 10.4 mph 17.3 mph N/A   Light Drizzle
6:55 PM 62.6 °F 48.2 °F 59% 29.80 in 10.0 mi WSW 9.2 mph - N/A Rain Light Rain
7:15 PM 62.6 °F 48.2 °F 59% 29.79 in 10.0 mi SW 5.8 mph - N/A   Light Drizzle
7:35 PM 62.6 °F 48.2 °F 59% 29.79 in 10.0 mi WSW 9.2 mph 16.1 mph N/A   Overcast
7:55 PM 62.6 °F 46.4 °F 55% 29.79 in 10.0 mi WSW 8.1 mph - N/A   Overcast
8:15 PM 62.6 °F 46.4 °F 55% 29.80 in 10.0 mi West 10.4 mph 16.1 mph N/A   Overcast
8:35 PM 62.6 °F 46.4 °F 55% 29.82 in 10.0 mi West 25.3 mph 34.5 mph N/A   Overcast
8:55 PM 62.6 °F 46.4 °F 55% 29.82 in 10.0 mi West 19.6 mph 29.9 mph N/A   Overcast
9:15 PM 60.8 °F 46.4 °F 59% 29.84 in 10.0 mi WNW 20.7 mph 33.4 mph N/A   Overcast
9:35 PM 57.2 °F 50.0 °F 77% 29.86 in 10.0 mi West 12.7 mph 21.9 mph N/A   Light Drizzle
9:55 PM 55.4 °F 51.8 °F 88% 29.85 in 4.0 mi WNW 9.2 mph 18.4 mph 0.04 in Rain Light Rain
10:15 PM 53.6 °F 51.8 °F 94% 29.86 in 7.0 mi West 10.4 mph 17.3 mph 0.01 in   Mostly Cloudy
10:35 PM 53.6 °F 51.8 °F 94% 29.87 in 10.0 mi West 8.1 mph - 0.01 in   Clear
10:55 PM 53.6 °F 51.8 °F 94% 29.87 in 10.0 mi West 9.2 mph 16.1 mph 0.01 in   Clear
11:15 PM 53.6 °F 50.0 °F 88% 29.88 in 10.0 mi WNW 11.5 mph - N/A   Clear
11:35 PM 53.6 °F 50.0 °F 88% 29.86 in 10.0 mi WNW 12.7 mph - N/A   Clear
11:55 PM 53.6 °F 48.2 °F 82% 29.86 in 10.0 mi WNW 9.2 mph 18.4 mph N/A   Clear